K0WOI Weather Reports


Display with metric or nautical units.
time (UTC)temp
F
wind
direction
speed
MPH
gust
MPH
rain 1hr
in
rain 24hr
in
rain mn
in
humidity
%
barometer
mb
20260903214209 94 86 3.0 5.0 0.00 0.00 0.00 57 1009.0
20260903213703 94 85 2.0 3.0 0.00 0.00 0.00 56 1009.1
20260903213159 93 85 2.0 3.0 0.00 0.00 0.00 57 1009.0
20260903212654 94 85 2.0 3.0 0.00 0.00 0.00 57 1009.2
20260903212150 94 84 2.0 2.0 0.00 0.00 0.00 59 1009.1
20260903211644 94 85 3.0 5.0 0.00 0.00 0.00 58 1009.1
20260903211141 94 85 2.0 2.0 0.00 0.00 0.00 61 1009.4
20260903210636 94 85 3.0 3.0 0.00 0.00 0.00 61 1009.4
20260903210132 95 84 1.0 2.0 0.00 0.00 0.00 64 1009.5
20260903205631 94 84 1.0 1.0 0.00 0.00 0.00 61 1009.4
20260903205130 94 84 1.0 2.0 0.00 0.00 0.00 66 1009.5
20260903204626 93 84 3.0 5.0 0.00 0.00 0.00 62 1009.3
20260903204122 93 84 2.0 2.0 0.00 0.00 0.00 69 1009.4
20260903203618 93 86 2.0 5.0 0.00 0.00 0.00 64 1009.8
20260903203112 93 84 1.0 1.0 0.00 0.00 0.00 66 1009.5
20260903202607 93 83 2.0 2.0 0.00 0.00 0.00 70 1010.0
20260903202103 92 83 1.0 2.0 0.00 0.00 0.00 69 1009.7
20260903201557 92 84 2.0 2.0 0.00 0.00 0.00 71 1009.8
20260903201056 91 83 1.0 2.0 0.00 0.00 0.00 75 1009.8
20260903200552 90 83 1.0 1.0 0.00 0.00 0.00 76 1009.9
20260903200046 90 83 1.0 2.0 0.00 0.00 0.00 78 1010.1
20260903195543 89 83 1.0 1.0 0.00 0.00 0.00 80 1010.2
20260903195038 89 82 0.0 1.0 0.00 0.00 0.00 82 1010.3
20260903194533 88 83 2.0 2.0 0.00 0.00 0.00 81 1010.3
20260903194028 87 83 2.0 3.0 0.00 0.00 0.00 82 1010.3
20260903193524 86 83 2.0 2.0 0.00 0.00 0.00 84 1010.4
20260903193014 85 81 1.0 1.0 0.00 0.00 0.00 86 1010.5
20260903192511 84 81 1.0 1.0 0.00 0.00 0.00 87 1010.5
20260903192010 84 81 1.0 1.0 0.00 0.00 0.00 89 1010.6
20260903191507 83 80 0.0 0.0 0.00 0.00 0.00 89 1010.9
20260903191001 83 80 0.0 0.0 0.00 0.00 0.00 89 1010.9
20260903190501 82 80 0.0 0.0 0.00 0.00 0.00 88 1011.4
20260903185954 82 80 0.0 0.0 0.00 0.00 0.00 88 1011.0
20260903185450 82 80 0.0 0.0 0.00 0.00 0.00 88 1010.8
20260903184950 81 80 0.0 0.0 0.00 0.00 0.00 88 1010.8
20260903184442 81 80 0.0 1.0 0.00 0.00 0.00 89 1011.2
20260903183942 82 80 1.0 1.0 0.00 0.00 0.00 92 1011.6
20260903183436 81 80 1.0 1.0 0.00 0.00 0.00 90 1011.4
20260903182936 81 80 1.0 1.0 0.00 0.00 0.00 87 1011.6
20260903182434 81 80 1.0 1.0 0.00 0.00 0.00 89 1011.9
20260903181930 83 81 1.0 1.0 0.00 0.00 0.00 85 1011.7
20260903181425 84 83 1.0 1.0 0.00 0.00 0.00 78 1011.8
20260903180924 85 83 0.0 0.0 0.00 0.00 0.00 76 1011.6
20260903180419 85 83 0.0 1.0 0.00 0.00 0.00 75 1011.8
20260903175919 86 83 0.0 0.0 0.00 0.00 0.00 74 1011.7
20260903175413 86 83 0.0 1.0 0.00 0.00 0.00 75 1011.8
20260903174907 87 83 0.0 0.0 0.00 0.00 0.00 76 1011.8
20260903174402 87 83 1.0 1.0 0.00 0.00 0.00 75 1011.6
20260903173857 87 83 1.0 1.0 0.00 0.00 0.00 71 1011.6
20260903173352 87 83 0.0 0.0 0.00 0.00 0.00 74 1011.6
20260903172848 86 83 0.0 0.0 0.00 0.00 0.00 73 1012.0
20260903172342 86 83 1.0 1.0 0.00 0.00 0.00 74 1011.7
20260903171838 86 85 3.0 3.0 0.00 0.00 0.00 72 1011.6
20260903171333 85 83 0.0 0.0 0.00 0.00 0.00 75 1011.8
20260903170832 85 83 1.0 2.0 0.00 0.00 0.00 76 1011.7
20260903170327 84 83 0.0 0.0 0.00 0.00 0.00 78 1011.6
20260903165825 84 83 0.0 0.0 0.00 0.00 0.00 75 1011.8
20260903165325 84 83 1.0 1.0 0.00 0.00 0.00 77 1011.9
20260903164820 84 83 2.0 2.0 0.00 0.00 0.00 77 1011.6
20260903164316 82 83 0.0 0.0 0.00 0.00 0.00 80 1011.9
20260903163815 82 84 2.0 2.0 0.00 0.00 0.00 82 1012.1
20260903163312 80 82 0.0 0.0 0.00 0.00 0.00 84 1011.6
20260903162807 80 82 0.0 0.0 0.00 0.00 0.00 85 1011.8
20260903162306 80 82 1.0 1.0 0.00 0.00 0.00 85 1012.0
20260903161759 80 82 0.0 1.0 0.00 0.00 0.00 85 1012.2
20260903161254 80 82 0.0 0.0 0.00 0.00 0.00 85 1012.1
20260903160750 80 82 0.0 0.0 0.00 0.00 0.00 84 1012.1
20260903160249 80 82 0.0 1.0 0.00 0.00 0.00 80 1012.3
20260903155747 80 83 1.0 1.0 0.00 0.00 0.00 80 1012.4
20260903155243 81 82 1.0 1.0 0.00 0.00 0.00 82 1012.1
20260903154738 82 83 0.0 1.0 0.00 0.00 0.00 79 1011.9
20260903154234 82 83 0.0 0.0 0.00 0.00 0.00 78 1012.1
20260903153729 82 83 0.0 0.0 0.00 0.00 0.00 77 1012.1
20260903153225 82 83 0.0 0.0 0.00 0.00 0.00 78 1012.4
20260903152721 82 83 1.0 2.0 0.00 0.00 0.00 77 1012.1
20260903152217 81 83 0.0 1.0 0.00 0.00 0.00 78 1012.0
20260903151717 80 83 1.0 1.0 0.00 0.00 0.00 83 1012.0
20260903151212 79 82 0.0 1.0 0.00 0.00 0.00 87 1012.3
20260903150707 79 82 1.0 1.0 0.00 0.00 0.00 87 1011.9
20260903150202 78 82 0.0 0.0 0.00 0.00 0.00 89 1011.9
20260903145702 77 81 0.0 0.0 0.00 0.00 0.00 92 1011.9
20260903145157 77 81 0.0 0.0 0.00 0.00 0.00 93 1011.9
20260903144656 76 81 0.0 0.0 0.00 0.00 0.00 93 1011.7
20260903144152 76 81 0.0 0.0 0.00 0.00 0.00 92 1011.7
20260903143648 76 81 1.0 1.0 0.00 0.00 0.00 92 1011.9
20260903143143 76 81 0.0 0.0 0.00 0.00 0.00 92 1012.1
20260903142639 76 81 0.0 0.0 0.00 0.00 0.00 91 1012.2
20260903142135 76 81 0.0 0.0 0.00 0.00 0.00 90 1012.3
20260903141631 76 81 0.0 0.0 0.00 0.00 0.00 90 1012.1
20260903141125 76 81 0.0 0.0 0.00 0.00 0.00 91 1012.2
20260903140622 76 81 0.0 0.0 0.00 0.00 0.00 91 1012.3
20260903140117 76 81 0.0 0.0 0.00 0.00 0.00 91 1012.2
20260903135613 76 81 0.0 0.0 0.00 0.00 0.00 91 1012.5
20260903135112 76 81 0.0 0.0 0.00 0.00 0.00 92 1012.2
20260903134611 77 81 1.0 1.0 0.00 0.00 0.00 92 1012.4
20260903134108 76 81 0.0 0.0 0.00 0.00 0.00 90 1012.1
20260903133605 77 81 0.0 0.0 0.00 0.00 0.00 91 1012.3
20260903133101 77 81 0.0 0.0 0.00 0.00 0.00 89 1012.3
20260903132556 77 81 0.0 0.0 0.00 0.00 0.00 90 1012.2
20260903132050 77 81 0.0 0.0 0.00 0.00 0.00 89 1012.3
20260903131550 77 81 0.0 0.0 0.00 0.00 0.00 88 1012.2
20260903131044 76 81 0.0 0.0 0.00 0.00 0.00 87 1012.0
20260903130544 76 81 0.0 1.0 0.00 0.00 0.00 87 1012.0
20260903130039 75 81 1.0 1.0 0.00 0.00 0.00 87 1012.1
20260903125537 75 81 0.0 0.0 0.00 0.00 0.00 88 1012.2
20260903125032 75 81 0.0 0.0 0.00 0.00 0.00 87 1012.2
20260903124527 75 81 0.0 0.0 0.00 0.00 0.00 88 1012.1
20260903124021 75 81 0.0 0.0 0.00 0.00 0.00 88 1012.3
20260903123521 74 81 0.0 1.0 0.00 0.00 0.00 88 1012.1
20260903123020 75 81 0.0 0.0 0.00 0.00 0.00 89 1011.9
20260903122514 74 81 0.0 0.0 0.00 0.00 0.00 89 1012.0
20260903122014 74 81 0.0 0.0 0.00 0.00 0.00 89 1012.0
20260903121509 74 81 0.0 0.0 0.00 0.00 0.00 87 1011.9
20260903121005 74 82 0.0 0.0 0.00 0.00 0.00 85 1011.6
20260903120503 75 82 1.0 2.0 0.00 0.00 0.00 85 1011.7
20260903120002 75 83 0.0 0.0 0.00 0.00 0.00 84 1011.6
20260903115456 75 83 0.0 0.0 0.00 0.00 0.00 83 1011.4
20260903114956 75 83 0.0 0.0 0.00 0.00 0.00 83 1011.5
20260903114451 75 83 0.0 0.0 0.00 0.00 0.00 83 1011.4
20260903113947 75 83 0.0 0.0 0.00 0.00 0.00 83 1011.0
20260903113442 75 83 0.0 0.0 0.00 0.00 0.00 83 1011.3
20260903112938 75 83 0.0 0.0 0.00 0.00 0.00 83 1011.2
20260903112434 75 83 0.0 0.0 0.00 0.00 0.00 83 1010.8
20260903111932 75 83 0.0 0.0 0.00 0.00 0.00 82 1010.9
20260903111427 76 83 0.0 1.0 0.00 0.00 0.00 82 1010.7
20260903110924 76 83 0.0 0.0 0.00 0.00 0.00 82 1011.0
20260903110419 76 84 0.0 1.0 0.00 0.00 0.00 82 1010.7
20260903105914 76 83 1.0 1.0 0.00 0.00 0.00 81 1010.8
20260903105409 76 83 1.0 1.0 0.00 0.00 0.00 82 1010.8
20260903104909 76 83 1.0 1.0 0.00 0.00 0.00 83 1011.0
20260903104403 75 84 2.0 2.0 0.00 0.00 0.00 83 1010.9
20260903103900 75 83 0.0 0.0 0.00 0.00 0.00 84 1010.9
20260903103356 75 82 1.0 1.0 0.00 0.00 0.00 85 1011.0
20260903102850 75 83 1.0 1.0 0.00 0.00 0.00 85 1010.7
20260903102345 75 83 1.0 1.0 0.00 0.00 0.00 84 1010.6
20260903101845 76 82 0.0 1.0 0.00 0.00 0.00 84 1010.7
20260903101340 76 82 0.0 1.0 0.00 0.00 0.00 83 1010.7
20260903100836 76 83 1.0 1.0 0.00 0.00 0.00 83 1010.7
20260903100336 76 82 0.0 0.0 0.00 0.00 0.00 83 1010.3
20260903095832 76 82 0.0 0.0 0.00 0.00 0.00 83 1010.5
20260903095327 76 82 0.0 0.0 0.00 0.00 0.00 83 1010.2
20260903094822 76 83 0.0 1.0 0.00 0.00 0.00 83 1010.3
20260903094317 76 82 0.0 1.0 0.00 0.00 0.00 82 1010.2
20260903093813 76 82 0.0 0.0 0.00 0.00 0.00 82 1010.3
20260903093308 76 83 1.0 1.0 0.00 0.00 0.00 82 1010.5
20260903092808 76 82 1.0 1.0 0.00 0.00 0.00 83 1010.5
20260903092306 77 82 0.0 0.0 0.00 0.00 0.00 82 1010.3
20260903091802 77 82 0.0 0.0 0.00 0.00 0.00 82 1010.4
20260903091256 77 82 0.0 1.0 0.00 0.00 0.00 82 1010.3
20260903090752 77 83 1.0 2.0 0.00 0.00 0.00 81 1010.5
20260903090251 77 83 3.0 3.0 0.00 0.00 0.00 81 1010.1
20260903085750 77 83 0.0 1.0 0.00 0.00 0.00 81 1010.2
20260903085244 77 82 1.0 1.0 0.00 0.00 0.00 81 1010.1
20260903084743 77 82 0.0 0.0 0.00 0.00 0.00 80 1010.2
20260903084237 77 83 2.0 2.0 0.00 0.00 0.00 80 1010.2
20260903083733 77 82 0.0 0.0 0.00 0.00 0.00 80 1010.0
20260903083227 77 82 0.0 0.0 0.00 0.00 0.00 80 1010.1
20260903082726 78 83 1.0 1.0 0.00 0.00 0.00 80 1010.1
20260903082223 78 82 1.0 2.0 0.00 0.00 0.00 80 1010.0
20260903081722 78 82 0.0 0.0 0.00 0.00 0.00 80 1010.1
20260903081218 78 83 1.0 2.0 0.00 0.00 0.00 80 1010.1
20260903080714 78 82 0.0 0.0 0.00 0.00 0.00 80 1010.1
20260903080212 78 82 0.0 1.0 0.00 0.00 0.00 80 1010.3
20260903075710 78 82 1.0 1.0 0.00 0.00 0.00 80 1010.0
20260903075206 78 82 1.0 1.0 0.00 0.00 0.00 81 1009.9
20260903074705 78 82 1.0 1.0 0.00 0.00 0.00 81 1010.2
20260903074201 78 82 0.0 1.0 0.00 0.00 0.00 80 1010.3
20260903073655 78 82 0.0 1.0 0.00 0.00 0.00 80 1010.0
20260903073150 78 83 2.0 3.0 0.00 0.00 0.00 81 1010.1
20260903072646 78 82 1.0 1.0 0.00 0.00 0.00 81 1010.1
20260903072143 77 82 1.0 1.0 0.00 0.00 0.00 82 1010.1
20260903071639 77 82 1.0 2.0 0.00 0.00 0.00 82 1010.2
20260903071134 77 82 0.0 0.0 0.00 0.00 0.00 82 1010.1
20260903070634 77 82 1.0 1.0 0.00 0.00 0.00 82 1010.3
20260903070130 78 82 1.0 1.0 0.00 0.00 0.00 82 1010.2
20260903065629 78 82 0.0 0.0 0.00 0.00 0.00 81 1010.4
20260903065124 78 82 0.0 1.0 0.00 0.00 0.00 81 1010.3
20260903064618 78 82 1.0 1.0 0.00 0.00 0.00 81 1010.2
20260903064113 78 82 0.0 0.0 0.00 0.00 0.00 81 1010.4
20260903063609 78 82 1.0 1.0 0.00 0.00 0.00 81 1010.4
20260903063104 78 82 0.0 0.0 0.00 0.00 0.00 81 1010.3
20260903062559 78 82 0.0 0.0 0.00 0.00 0.00 80 1010.4
20260903062054 78 82 1.0 1.0 0.00 0.00 0.00 80 1010.3
20260903061550 78 82 0.0 0.0 0.00 0.00 0.00 80 1010.4
20260903061049 78 82 1.0 1.0 0.00 0.00 0.00 80 1010.3
20260903060549 78 82 0.0 0.0 0.00 0.00 0.00 80 1010.4
20260903060044 78 85 2.0 5.0 0.00 0.00 0.00 80 1010.4
20260903055541 78 82 1.0 2.0 0.00 0.00 0.00 80 1010.3
20260903055040 79 82 0.0 0.0 0.00 0.00 0.00 80 1010.3
20260903054536 79 82 1.0 2.0 0.00 0.00 0.00 79 1010.3
20260903054032 79 82 1.0 1.0 0.00 0.00 0.00 79 1010.1
20260903053526 79 82 1.0 1.0 0.00 0.00 0.00 78 1010.4
20260903053023 79 82 0.0 0.0 0.00 0.00 0.00 78 1010.3
20260903052518 79 82 0.0 1.0 0.00 0.00 0.00 78 1010.2
20260903052014 79 82 1.0 2.0 0.00 0.00 0.00 79 1010.4
20260903051508 79 82 1.0 1.0 0.00 0.00 0.00 79 1010.3
20260903051004 80 82 0.0 1.0 0.00 0.00 0.00 79 1010.4
20260903050503 80 82 0.0 1.0 0.00 0.00 0.00 79 1010.3
20260903045957 80 82 1.0 1.0 0.00 0.00 0.00 78 1010.5
20260903045453 80 83 2.0 2.0 0.00 0.00 0.00 79 1010.5
20260903044949 80 82 1.0 1.0 0.00 0.00 0.00 79 1010.4
20260903044445 80 82 1.0 1.0 0.00 0.00 0.00 79 1010.6
20260903043941 80 82 0.0 1.0 0.00 0.00 0.00 80 1010.4
20260903043436 80 82 0.0 1.0 0.00 0.00 0.00 80 1010.4
20260903042934 80 82 0.0 1.0 0.00 0.00 0.00 80 1010.4
20260903042430 80 82 0.0 0.0 0.00 0.00 0.00 80 1010.5
20260903041926 80 82 0.0 1.0 0.00 0.00 0.00 80 1010.5
20260903041422 80 82 1.0 1.0 0.00 0.00 0.00 80 1010.7
20260903040918 80 83 2.0 2.0 0.00 0.00 0.00 80 1010.5
20260903040417 80 82 0.0 1.0 0.00 0.00 0.00 80 1010.3
20260903035913 80 82 0.0 0.0 0.00 0.00 0.00 80 1010.3
20260903035409 80 82 0.0 1.0 0.00 0.00 0.00 79 1010.5
20260903034903 81 82 0.0 1.0 0.00 0.00 0.00 79 1010.5
20260903034358 81 82 0.0 1.0 0.00 0.00 0.00 79 1010.5
20260903033853 81 82 0.0 1.0 0.00 0.00 0.00 79 1010.4
20260903033348 81 82 0.0 1.0 0.00 0.00 0.00 79 1010.6
20260903032848 81 82 0.0 1.0 0.00 0.00 0.00 79 1010.5
20260903032344 81 82 0.0 1.0 0.00 0.00 0.00 79 1010.2
20260903031839 81 82 1.0 1.0 0.00 0.00 0.00 79 1010.6
20260903031338 82 82 0.0 0.0 0.00 0.00 0.00 79 1010.7
20260903030834 82 82 1.0 1.0 0.00 0.00 0.00 79 1010.6
20260903030330 82 82 1.0 2.0 0.00 0.00 0.00 79 1010.5
20260903025826 82 82 1.0 1.0 0.00 0.00 0.00 79 1010.2
20260903025321 82 82 1.0 1.0 0.00 0.00 0.00 79 1010.3
20260903024820 82 82 1.0 1.0 0.00 0.00 0.00 80 1010.4
20260903024320 82 82 0.0 0.0 0.00 0.00 0.00 79 1010.6
20260903023816 82 82 0.0 0.0 0.00 0.00 0.00 79 1010.6
20260903023311 82 82 0.0 0.0 0.00 0.00 0.00 79 1010.2
20260903022806 82 82 0.0 1.0 0.00 0.00 0.00 79 1010.4
20260903022306 83 82 1.0 1.0 0.00 0.00 0.00 79 1010.2
20260903021759 83 82 1.0 1.0 0.00 0.00 0.00 79 1010.3
20260903021255 83 82 0.0 0.0 0.00 0.00 0.00 79 1010.4
20260903020754 83 82 0.0 0.0 0.00 0.00 0.00 79 1010.4
20260903020249 83 82 0.0 1.0 0.00 0.00 0.00 79 1010.3
20260903015744 83 82 0.0 0.0 0.00 0.00 0.00 79 1010.4
20260903015240 83 82 0.0 0.0 0.00 0.00 0.00 79 1010.0
20260903014735 84 83 1.0 1.0 0.00 0.00 0.00 78 1010.1
20260903014234 84 83 0.0 1.0 0.00 0.00 0.00 78 1010.2
20260903013730 84 83 0.0 1.0 0.00 0.00 0.00 78 1010.1
20260903013229 84 82 0.0 1.0 0.00 0.00 0.00 78 1010.2
20260903012727 84 82 0.0 1.0 0.00 0.00 0.00 78 1010.0
20260903012221 84 83 1.0 1.0 0.00 0.00 0.00 78 1009.8
20260903011716 84 83 0.0 0.0 0.00 0.00 0.00 77 1009.9
20260903011210 85 83 0.0 0.0 0.00 0.00 0.00 77 1009.7
20260903010706 85 83 0.0 1.0 0.00 0.00 0.00 76 1009.6
20260903010205 85 83 0.0 0.0 0.00 0.00 0.00 76 1009.7
20260903005704 85 83 0.0 0.0 0.00 0.00 0.00 75 1009.7
20260903005200 85 83 0.0 0.0 0.00 0.00 0.00 75 1009.7
20260903004655 85 83 0.0 0.0 0.00 0.00 0.00 75 1009.7
20260903004150 86 83 0.0 0.0 0.00 0.00 0.00 75 1010.0
20260903003646 86 83 0.0 0.0 0.00 0.00 0.00 74 1009.8
20260903003141 86 83 0.0 0.0 0.00 0.00 0.00 74 1009.6
20260903002636 86 83 0.0 0.0 0.00 0.00 0.00 73 1009.7
20260903002130 86 83 0.0 0.0 0.00 0.00 0.00 73 1009.6
20260903001625 87 83 0.0 0.0 0.00 0.00 0.00 72 1009.7
20260903001119 87 83 0.0 1.0 0.00 0.00 0.00 72 1009.6
20260903000615 87 83 0.0 0.0 0.00 0.00 0.00 71 1009.6
20260903000114 88 83 0.0 0.0 0.00 0.00 0.00 70 1009.4
20260902235613 88 83 0.0 0.0 0.00 0.00 0.00 70 1009.6
20260902235108 88 83 0.0 0.0 0.00 0.00 0.00 70 1009.5
20260902234602 89 83 0.0 0.0 0.00 0.00 0.00 70 1009.6
20260902234101 89 84 0.0 1.0 0.00 0.00 0.00 68 1009.6
20260902233556 89 84 0.0 1.0 0.00 0.00 0.00 68 1009.8
20260902233050 89 84 1.0 1.0 0.00 0.00 0.00 67 1009.7
20260902232550 90 84 0.0 1.0 0.00 0.00 0.00 68 1009.8
20260902232044 90 84 0.0 0.0 0.00 0.00 0.00 68 1009.7
20260902231538 91 84 1.0 1.0 0.00 0.00 0.00 67 1009.7
20260902231033 92 84 0.0 0.0 0.00 0.00 0.00 66 1009.6
20260902230533 93 84 1.0 1.0 0.00 0.00 0.00 64 1009.7
20260902230027 93 84 0.0 1.0 0.00 0.00 0.00 64 1009.7
20260902225522 92 84 0.0 0.0 0.00 0.00 0.00 66 1009.8
20260902225022 92 84 1.0 1.0 0.00 0.00 0.00 63 1009.7
20260902224520 93 84 0.0 1.0 0.00 0.00 0.00 64 1009.8
20260902224011 95 84 0.0 1.0 0.00 0.00 0.00 60 1009.9
20260902223507 94 84 1.0 1.0 0.00 0.00 0.00 61 1009.9
20260902223006 94 85 1.0 1.0 0.00 0.00 0.00 58 1009.8
20260902222504 94 84 0.0 0.0 0.00 0.00 0.00 58 1009.7
20260902221958 95 85 0.0 1.0 0.00 0.00 0.00 59 1009.8
20260902221457 95 85 2.0 2.0 0.00 0.00 0.00 56 1010.0
20260902220948 95 85 1.0 1.0 0.00 0.00 0.00 59 1010.0
20260902220447 95 85 3.0 3.0 0.00 0.00 0.00 58 1010.0
20260902215942 95 85 0.0 1.0 0.00 0.00 0.00 60 1010.0
20260902215438 95 85 1.0 1.0 0.00 0.00 0.00 59 1010.0
20260902214934 95 84 1.0 1.0 0.00 0.00 0.00 59 1010.1
20260902214432 95 85 1.0 2.0 0.00 0.00 0.00 58 1010.1